Wind_Speed
79 83 88 89 94 98 97 98 100 97 95 94 89 84 81 79 77 72 65 53 45 38 36 33 34 46 58 72 81 84 88 96 99 105 114 122 132 129 126 123 121 116 109 108 107 97 92
80 84 90 92 98 101 99 100 101 102 99 94 87 85 83 81 78 75 69 55 44 32 30 30 31 37 51 69 88 85 89 93 98 103 110 118 134 133 131 130 124 119 115 112 106 98 96
81 85 90 94 102 104 103 100 103 105 101 96 88 85 86 83 81 77 72 57 46 33 24 25 28 35 47 67 81 86 87 90 97 102 109 117 129 136 131 129 128 124 120 115 106 100 101
81 86 91 95 99 104 106 104 104 106 103 96 88 85 86 85 83 80 74 59 51 38 27 23 25 30 44 58 75 89 87 90 93 99 105 113 121 136 133 129 130 127 122 116 109 106 104
82 86 91 96 101 106 108 110 109 106 104 97 90 85 85 85 84 81 75 65 57 44 35 23 21 26 40 52 70 86 88 87 92 98 104 108 116 124 136 130 130 129 124 116 115 111 109
83 87 93 96 104 106 108 111 109 107 104 100 93 88 86 84 82 81 77 70 60 48 35 21 15 22 33 51 64 76 90 87 91 95 100 103 111 119 126 132 125 123 124 119 115 114 110
84 90 93 96 102 104 107 110 111 106 103 102 96 90 88 86 83 81 78 70 59 46 29 17 7 19 31 47 55 66 83 87 89 92 93 97 100 109 115 128 133 127 127 126 121 117 113
84 90 93 95 97 101 106 110 113 108 101 100 98 93 89 87 84 82 78 71 57 43 32 18 7 12 25 37 47 63 73 88 89 89 86 90 97 103 107 114 121 127 127 124 123 116 115
83 87 88 96 97 97 104 108 110 109 101 98 98 95 92 89 85 83 80 72 59 45 36 24 15 8 23 33 43 52 64 80 88 86 89 90 92 92 95 102 112 121 126 124 122 119 119
82 86 89 95 98 98 103 104 109 109 102 96 96 94 92 89 87 81 78 74 63 48 37 29 20 11 12 28 41 49 55 76 85 85 87 86 84 85 88 96 103 111 123 124 117 121 120
82 84 92 93 99 95 106 99 104 107 102 95 93 93 91 88 85 79 76 70 62 50 39 28 22 12 12 16 30 44 57 72 76 76 75 74 74 76 77 85 96 104 116 125 121 122 120
82 85 90 94 98 98 106 97 103 106 103 94 91 92 90 87 84 77 72 68 62 51 40 31 22 16 8 14 21 27 43 55 66 68 73 75 73 70 71 76 83 96 106 118 126 123 120
83 85 91 94 97 97 108 103 100 104 101 95 88 88 89 86 84 78 71 66 61 50 39 31 22 16 9 12 20 27 34 42 53 58 61 64 67 65 65 67 75 84 98 111 115 125 122
86 87 91 93 94 94 110 113 99 100 98 93 89 85 85 83 81 78 72 67 62 52 37 30 26 17 11 5 8 19 28 36 43 49 53 56 55 55 57 61 69 78 87 99 109 111 122
84 89 90 91 94 95 104 112 110 99 98 94 89 85 81 79 78 75 67 61 58 53 44 32 24 24 15 7 6 3 7 24 32 36 41 44 45 48 51 54 61 68 74 84 96 107 111
86 90 92 91 92 91 102 108 114 97 97 92 88 84 79 75 72 70 64 56 51 47 42 31 23 18 17 17 9 8 8 11 18 23 28 32 37 40 43 48 54 61 67 74 83 94 104
87 90 93 94 92 86 101 101 111 99 97 92 88 83 77 71 68 65 62 54 48 44 39 33 23 15 12 12 12 9 7 8 11 14 18 23 28 32 38 41 49 55 58 65 73 81 91
88 91 91 88 89 85 95 97 107 103 93 92 87 84 77 68 64 61 58 52 46 41 36 30 23 16 10 7 6 7 7 8 10 14 16 21 23 26 29 35 42 48 53 60 65 70 80
87 90 88 84 84 91 93 97 104 105 91 87 83 83 78 68 61 58 55 49 42 37 34 30 26 19 11 5 2 3 5 8 12 15 17 19 22 24 27 32 37 43 49 52 57 65 70
88 86 86 85 88 88 91 99 99 99 90 86 79 78 76 71 60 54 52 48 42 37 32 28 24 19 12 8 3 2 3 7 11 14 17 19 22 24 26 31 34 38 43 48 53 56 65
87 85 83 85 84 84 91 95 96 101 87 84 81 75 74 70 62 52 48 47 41 36 31 28 24 21 15 8 4 2 6 9 13 17 20 23 24 26 27 30 33 36 40 45 49 57 60
86 85 83 84 86 85 92 96 97 93 82 77 74 72 71 67 60 52 45 44 41 36 30 27 24 20 18 16 11 8 6 5 6 11 16 21 25 26 29 32 32 34 36 42 47 50 54
87 86 86 84 85 87 89 93 92 88 80 75 74 68 67 64 59 52 47 41 38 36 32 27 24 21 18 16 16 14 10 10 9 10 13 17 20 24 27 26 30 34 38 40 42 45 47
88 88 88 86 87 86 88 91 87 85 77 71 69 66 64 59 56 52 45 43 38 34 31 28 24 21 19 17 17 17 16 13 13 13 15 15 19 22 23 25 29 34 33 36 38 40 45
89 91 88 87 86 84 87 85 85 80 77 73 71 67 62 56 52 49 44 41 39 37 31 28 25 22 21 18 18 19 21 20 17 16 16 18 17 19 22 26 30 30 34 36 38 39 41
89 89 87 89 84 86 83 86 83 78 70 71 68 65 61 56 51 47 44 40 37 38 35 30 27 24 21 21 20 20 22 23 23 20 17 18 19 20 20 25 26 29 28 31 35 39 42
91 88 88 87 83 89 82 81 81 78 70 69 66 63 56 53 50 46 44 41 36 36 36 33 31 26 24 23 22 22 23 23 25 23 21 21 21 21 22 23 25 25 26 27 27 33 37
92 91 89 88 85 83 79 83 80 79 71 68 65 60 53 48 49 46 44 40 37 35 35 35 31 31 27 27 25 24 26 26 26 25 25 24 24 23 22 23 23 25 24 25 29 31 29
94 93 90 92 86 88 83 83 88 80 74 68 66 65 57 48 47 45 43 41 39 36 36 34 32 32 28 30 29 25 26 28 27 29 29 28 26 26 26 24 24 23 22 24 27 31 31
Wind_Direction
344 344 345 343 343 342 342 343 342 344 346 346 345 344 345 345 343 342 338 332 322 307 292 273 247 232 220 212 217 217 212 211 210 207 208 208 212 213 213 212 215 214 214 214 217 216 222
342 344 345 344 342 341 342 344 344 345 347 348 347 347 348 348 347 346 345 340 332 317 292 275 253 231 221 207 214 214 214 210 209 209 208 208 208 214 213 212 214 214 214 215 215 216 221
341 344 346 344 343 341 342 345 345 346 348 349 349 350 351 350 350 350 349 346 342 329 306 280 255 232 217 209 212 211 215 211 209 209 209 209 208 213 215 214 212 214 214 215 213 217 222
340 343 345 345 344 341 341 345 347 347 349 350 351 352 353 353 353 353 353 353 351 341 328 295 259 230 212 207 207 209 213 212 210 209 210 209 210 210 215 214 215 214 214 214 213 217 222
340 342 345 345 345 342 342 344 349 348 349 351 352 355 356 356 356 356 356 359 355 348 336 308 261 229 209 203 203 209 211 212 211 210 211 211 211 211 214 216 215 215 214 213 216 216 221
340 343 344 345 346 343 343 343 347 350 349 351 354 355 358 359 359 360 1 1 356 350 339 319 267 225 203 199 203 207 210 210 213 212 211 212 212 213 212 217 216 217 216 215 216 218 221
341 343 346 346 348 345 343 343 345 349 351 351 353 355 359 1 1 3 4 4 356 353 347 345 271 211 204 198 200 205 207 209 213 214 212 213 214 214 215 215 216 216 217 217 216 218 219
341 345 347 348 348 349 344 344 343 349 352 351 353 355 359 1 2 5 7 7 2 1 7 21 34 181 188 191 196 201 205 205 212 215 215 215 215 216 214 215 216 217 220 219 218 217 221
340 345 345 349 348 349 349 342 343 347 352 353 352 354 358 1 2 7 7 10 8 14 19 30 43 136 166 178 189 196 202 206 210 214 214 216 218 218 216 215 217 217 219 222 219 220 222
338 343 344 345 346 351 354 343 343 345 351 353 352 353 357 1 2 6 8 11 11 18 25 34 46 78 156 176 182 193 200 203 212 214 214 217 219 219 217 216 217 217 217 222 221 223 224
337 342 345 342 346 351 353 347 343 345 350 353 353 352 356 360 1 5 8 11 12 21 27 37 48 60 143 178 184 189 193 204 213 215 219 223 223 222 220 218 218 218 218 220 223 224 225
336 340 341 342 345 349 356 355 344 345 349 352 354 352 354 358 360 4 8 12 15 21 26 38 50 65 110 156 170 186 200 205 212 215 217 220 223 222 221 220 219 220 220 220 222 226 227
334 340 341 341 341 347 355 358 349 347 349 350 354 354 352 356 357 1 6 10 17 20 24 38 45 60 99 158 169 183 194 203 211 217 222 223 225 224 221 220 219 220 222 222 222 225 228
332 337 339 341 342 350 356 359 357 349 350 350 352 355 352 354 355 358 2 6 12 18 23 34 46 53 63 59 195 197 195 198 208 215 219 221 224 225 223 222 220 220 222 223 224 225 227
332 334 334 339 342 349 356 357 358 351 351 350 350 353 353 352 353 355 360 4 6 9 15 25 43 51 49 79 111 122 205 211 217 218 220 222 224 225 225 224 222 223 224 224 224 224 227
330 330 332 335 340 348 354 356 357 353 351 349 348 350 353 350 351 351 355 0 3 6 8 18 27 46 58 56 66 112 137 164 211 220 222 221 221 223 225 224 223 222 223 224 225 225 227
327 328 330 334 339 343 351 355 356 355 349 348 347 348 349 349 349 348 350 356 360 4 4 8 15 35 50 75 81 90 132 165 178 195 210 217 217 216 220 220 220 219 222 223 224 225 228
324 327 330 335 338 343 350 352 354 355 349 347 346 344 346 348 346 346 346 350 354 358 360 1 7 10 32 47 85 125 151 178 185 197 204 206 210 213 213 215 217 218 219 220 222 224 227
321 325 330 335 338 344 349 351 353 353 352 346 344 340 342 345 346 344 343 345 349 352 353 355 357 3 10 31 82 147 192 203 201 204 204 209 208 209 207 208 213 217 217 219 222 224 226
319 325 329 334 338 342 347 350 353 351 350 345 342 339 339 341 343 343 339 340 342 346 348 347 348 352 353 353 5 314 237 226 238 233 226 217 215 213 213 211 210 213 215 218 220 222 224
319 323 329 333 336 341 344 349 352 351 349 343 340 338 336 337 339 342 337 335 337 339 341 340 340 341 336 324 307 210 203 216 227 229 229 232 230 220 220 220 215 215 215 216 219 223 225
317 321 326 330 333 340 346 350 351 351 345 342 338 336 334 335 335 337 335 331 331 332 334 335 330 328 325 316 306 289 276 258 244 228 229 230 227 229 225 223 222 220 220 219 221 222 226
317 321 324 330 333 338 344 348 349 348 344 339 335 334 332 334 334 333 331 328 326 326 327 326 325 318 313 309 301 295 284 275 260 261 253 235 231 231 228 226 225 224 224 225 225 227 228
315 320 324 330 331 336 342 345 349 348 341 341 336 332 330 334 333 331 327 323 323 320 320 318 317 314 307 299 290 288 280 275 266 258 258 257 240 229 231 230 231 233 228 227 227 228 230
314 319 322 326 328 335 340 343 346 347 342 342 342 336 333 332 331 329 323 318 317 315 315 312 308 305 301 290 282 278 276 271 268 262 256 253 248 239 228 223 228 234 235 235 231 229 231
312 315 319 322 328 336 339 340 345 348 343 342 343 337 335 331 331 327 321 315 312 310 310 307 302 296 292 286 280 272 268 267 267 270 263 250 242 240 236 229 223 228 229 231 231 232 232
310 315 318 321 326 332 336 340 343 341 343 343 342 339 335 333 328 325 319 312 308 305 304 301 302 299 293 284 277 273 269 265 263 261 264 258 244 237 236 231 227 227 223 223 220 226 227
309 313 318 321 326 328 337 337 343 340 341 338 339 336 334 334 329 323 318 311 305 301 297 297 296 294 292 285 277 272 268 265 262 258 252 253 252 242 231 233 234 235 229 224 224 231 226
311 312 315 321 324 327 335 337 338 339 336 338 337 339 335 333 329 323 315 310 304 299 294 293 290 293 289 282 280 274 269 266 262 256 253 248 247 249 236 233 234 235 234 237 237 236 234
Height
10743 10730 10715 10699 10683 10667 10651 10635 10615 10599 10581 10561 10538 10519 10499 10478 10457 10439 10423 10405 10389 10378 10368 10367 10370 10374 10385 10401 10412 10425 10439 10453 10470 10487 10506 10527 10540 10555 10579 10599 10611 10633 10652 10660 10667 10696 10704
10737 10725 10709 10693 10676 10656 10641 10625 10606 10588 10571 10551 10529 10507 10487 10465 10445 10424 10406 10388 10374 10364 10355 10352 10354 10361 10369 10382 10381 10406 10418 10439 10459 10474 10493 10510 10529 10540 10556 10574 10594 10617 10631 10643 10663 10686 10689
10732 10720 10703 10687 10668 10647 10631 10616 10599 10579 10562 10542 10520 10497 10476 10456 10434 10413 10392 10375 10361 10351 10344 10339 10340 10346 10354 10360 10376 10395 10407 10426 10444 10461 10478 10494 10510 10525 10543 10562 10581 10598 10613 10630 10662 10671 10671
10728 10715 10700 10684 10662 10641 10621 10606 10591 10571 10553 10535 10515 10493 10470 10446 10424 10403 10384 10365 10350 10339 10333 10328 10328 10334 10341 10354 10366 10378 10394 10413 10433 10450 10462 10478 10493 10511 10529 10548 10565 10583 10601 10622 10648 10652 10658
10724 10710 10697 10678 10657 10637 10616 10597 10582 10563 10544 10526 10508 10488 10467 10443 10419 10399 10379 10358 10343 10332 10324 10319 10318 10323 10333 10345 10355 10366 10384 10404 10420 10436 10451 10466 10483 10502 10519 10535 10553 10573 10592 10618 10626 10639 10643
10719 10707 10692 10673 10653 10632 10610 10589 10574 10557 10537 10518 10501 10483 10465 10443 10420 10398 10376 10356 10341 10329 10319 10314 10313 10317 10327 10337 10348 10361 10373 10395 10410 10424 10441 10459 10471 10491 10508 10525 10549 10573 10593 10606 10616 10628 10637
10715 10702 10688 10670 10651 10629 10607 10587 10569 10554 10534 10511 10496 10479 10462 10443 10419 10399 10378 10359 10344 10330 10319 10313 10311 10314 10321 10330 10345 10360 10374 10390 10404 10416 10438 10453 10471 10489 10501 10519 10533 10552 10566 10585 10593 10609 10627
10711 10699 10683 10666 10649 10626 10603 10585 10563 10549 10530 10508 10490 10476 10458 10442 10420 10398 10383 10364 10348 10334 10323 10317 10315 10316 10323 10335 10344 10353 10363 10386 10400 10417 10435 10450 10460 10468 10488 10506 10524 10546 10561 10577 10589 10610 10616
10708 10694 10679 10663 10646 10626 10601 10582 10562 10543 10527 10508 10486 10473 10457 10441 10422 10403 10384 10370 10354 10340 10331 10325 10322 10324 10330 10342 10349 10362 10377 10389 10402 10413 10425 10436 10450 10467 10485 10502 10518 10538 10554 10562 10588 10597 10601
10702 10690 10677 10660 10644 10626 10601 10582 10562 10543 10527 10509 10488 10471 10460 10444 10425 10411 10394 10375 10361 10349 10342 10335 10332 10335 10341 10348 10355 10364 10379 10389 10394 10408 10420 10433 10446 10463 10479 10496 10511 10529 10545 10552 10578 10582 10590
10697 10687 10674 10657 10642 10623 10603 10580 10560 10542 10527 10511 10491 10472 10460 10447 10434 10417 10404 10389 10373 10360 10354 10348 10345 10345 10349 10355 10364 10369 10379 10388 10398 10414 10427 10437 10449 10462 10478 10491 10505 10518 10534 10546 10561 10565 10584
10694 10685 10672 10654 10642 10621 10602 10579 10560 10542 10527 10512 10495 10473 10460 10448 10439 10427 10414 10400 10384 10371 10366 10359 10355 10357 10358 10365 10372 10381 10389 10397 10401 10410 10421 10431 10442 10456 10471 10485 10501 10514 10524 10536 10548 10557 10572
10692 10681 10669 10653 10639 10620 10599 10580 10562 10542 10527 10514 10500 10480 10461 10449 10439 10429 10419 10409 10398 10384 10377 10373 10366 10368 10370 10371 10376 10382 10390 10400 10409 10416 10424 10433 10441 10452 10466 10480 10494 10504 10513 10525 10537 10551 10566
10683 10676 10666 10652 10637 10619 10599 10579 10562 10543 10528 10513 10501 10487 10467 10452 10441 10432 10419 10410 10402 10401 10391 10383 10379 10378 10379 10381 10383 10386 10391 10398 10406 10413 10419 10428 10439 10450 10463 10472 10481 10491 10499 10512 10529 10544 10554
10679 10671 10661 10651 10636 10620 10599 10579 10563 10545 10529 10515 10501 10489 10474 10459 10446 10437 10429 10419 10410 10403 10396 10393 10389 10387 10386 10387 10390 10393 10398 10403 10406 10414 10421 10429 10439 10447 10456 10465 10476 10485 10495 10502 10516 10528 10539
10674 10665 10654 10645 10633 10618 10598 10578 10564 10546 10530 10515 10501 10490 10481 10465 10453 10443 10435 10428 10420 10413 10404 10401 10396 10394 10392 10392 10394 10396 10399 10405 10410 10415 10422 10429 10436 10443 10450 10459 10467 10475 10482 10494 10505 10518 10527
10666 10660 10650 10639 10628 10615 10597 10577 10560 10547 10529 10517 10501 10490 10481 10471 10458 10447 10438 10432 10426 10419 10411 10406 10403 10400 10398 10397 10397 10400 10402 10405 10409 10415 10420 10425 10431 10438 10443 10450 10457 10466 10476 10485 10494 10506 10515
10661 10653 10644 10635 10622 10610 10595 10579 10559 10542 10529 10515 10505 10490 10480 10472 10462 10451 10442 10434 10426 10422 10418 10414 10410 10405 10402 10401 10401 10401 10403 10406 10409 10413 10417 10421 10426 10431 10436 10442 10448 10456 10464 10471 10481 10493 10500
10655 10646 10637 10628 10617 10604 10590 10578 10558 10541 10528 10513 10500 10489 10478 10471 10462 10452 10443 10437 10432 10425 10420 10415 10410 10407 10406 10404 10404 10404 10405 10406 10408 10410 10414 10418 10422 10426 10431 10436 10441 10447 10455 10463 10472 10478 10487
10645 10639 10629 10620 10612 10600 10585 10573 10556 10541 10523 10510 10497 10486 10475 10467 10460 10452 10442 10436 10431 10425 10421 10417 10414 10410 10408 10406 10404 10403 10404 10406 10407 10409 10412 10415 10418 10422 10425 10429 10435 10441 10448 10455 10461 10468 10473
10635 10629 10622 10612 10603 10596 10581 10568 10552 10537 10520 10506 10495 10483 10471 10464 10455 10450 10442 10434 10430 10425 10420 10416 10413 10410 10409 10408 10407 10406 10406 10406 10407 10408 10410 10412 10415 10418 10421 10425 10430 10435 10441 10446 10450 10456 10465
10627 10619 10612 10606 10595 10586 10575 10564 10546 10534 10518 10502 10487 10479 10468 10458 10450 10444 10440 10433 10426 10422 10418 10414 10411 10409 10407 10406 10405 10405 10404 10404 10405 10406 10406 10408 10410 10413 10417 10421 10425 10430 10433 10437 10441 10448 10453
10615 10608 10601 10596 10585 10578 10567 10557 10545 10526 10512 10496 10481 10472 10464 10454 10445 10438 10432 10430 10424 10418 10414 10412 10409 10407 10405 10403 10402 10402 10402 10401 10401 10402 10403 10404 10405 10409 10411 10416 10420 10422 10425 10430 10436 10440 10447
10603 10596 10591 10586 10576 10569 10559 10550 10538 10521 10504 10493 10479 10467 10457 10448 10439 10432 10426 10420 10419 10415 10411 10407 10405 10403 10402 10400 10400 10399 10399 10399 10399 10399 10400 10401 10402 10403 10406 10410 10413 10414 10421 10425 10429 10435 10437
10591 10585 10580 10576 10569 10561 10550 10538 10529 10515 10497 10484 10473 10462 10451 10441 10432 10425 10420 10414 10410 10407 10406 10403 10400 10398 10397 10397 10396 10395 10395 10395 10396 10396 10397 10398 10398 10400 10401 10402 10405 10410 10413 10417 10422 10426 10430
10578 10573 10569 10563 10557 10548 10541 10527 10516 10508 10493 10476 10463 10455 10444 10435 10425 10417 10412 10407 10403 10400 10396 10395 10395 10393 10391 10391 10390 10390 10390 10391 10391 10393 10393 10394 10394 10396 10397 10398 10401 10401 10406 10409 10414 10419 10423
10564 10562 10555 10549 10543 10538 10530 10517 10505 10496 10481 10467 10454 10444 10434 10426 10417 10410 10403 10399 10395 10393 10391 10387 10385 10386 10384 10383 10383 10384 10384 10386 10386 10388 10390 10390 10391 10391 10393 10394 10395 10398 10401 10404 10409 10409 10414
10545 10542 10539 10533 10528 10521 10513 10502 10493 10477 10471 10458 10445 10433 10422 10414 10407 10401 10395 10391 10387 10385 10383 10382 10379 10377 10377 10376 10376 10377 10378 10379 10380 10383 10385 10386 10387 10387 10388 10389 10393 10394 10397 10399 10400 10403 10408
10527 10520 10521 10517 10515 10504 10496 10486 10477 10469 10454 10446 10436 10426 10417 10404 10396 10391 10387 10382 10378 10375 10374 10374 10373 10370 10370 10369 10368 10370 10371 10371 10373 10374 10377 10379 10382 10383 10384 10385 10386 10389 10392 10393 10396 10398 10400